Preview of NWS' New Version of Forecast
This preview is not operational and should not be used for support decisions.

Regional Weather Roundup (RWR)

Issued by National Weather Service (NWS)

                            
000
ASPQ40 PGUM 180710
RWRPQ 
WEATHER ROUNDUP FOR THE MARIANAS AND MICRONESIA
NATIONAL WEATHER SERVICE TIYAN GU
500 PM CHST THU APR 18 2019

GUZ001>004-180800-
MARIANA ISLANDS-
  
CITY           SKY/WX    TMP DP  RH WIND       PRES   REMARKS
GUAM AIRPORT   SUNNY     84  70  61 E13       29.88S                  
ANDERSEN AFB   MOSUNNY   82  70  65 E12       29.88F                  
ROTA AIRPORT   MOSUNNY   82  73  74 E16       29.86F                  
TINIAN AP      MOSUNNY   84  72  65 E12       29.86F                  
SAIPAN AP      SUNNY     84  72  65 E13       29.88S                  

$$

PMZ161-180800-
REPUBLIC OF PALAU-
  
CITY           SKY/WX    TMP DP  RH WIND       PRES   REMARKS
KOROR AP       PTSUNNY   86  75  70 NE8       29.82S HX  95           
KOROR WSO      NOT AVBL                                               

$$

PMZ171>174-180800-
FEDERATED STATES OF MICRONESIA-
  
CITY           SKY/WX    TMP DP  RH WIND       PRES   REMARKS
YAP AIRPORT    PTSUNNY   81  77  89 VRB6      29.83S                  
CHUUK AP       CLOUDY    84  79  84 NE8G18    29.80R HX  96           
POHNPEI AP     NOT AVBL                                               
POHNPEI WSO    CLOUDY    82  77  83 NE5       29.84R HX  91           
KOSRAE AP      NOT AVBL                                               

$$

PMZ181-180800-
REPUBLIC OF THE MARSHALL ISLANDS-
  
CITY           SKY/WX    TMP DP  RH WIND       PRES   REMARKS
KWAJALEIN AP   PTCLDY    82  73  74 E14       29.84R                  
MAJURO AP      NOT AVBL                                               
MAJURO WSO     PTCLDY    82  75  78 E20       29.81R                  

$$